Weather History for Lapeer, MI

Change the Weather History Date:

Thursday, November 15, 2012

  Actual Average (KFNT) Record (KFNT)
Temperature  
Mean Temperature 33 °F 39 °F  
Max Temperature 43 °F 47 °F 69 °F (1990)
Min Temperature 23 °F 31 °F 10 °F (1933)
Degree Days  
Heating Degree Days 32 26  
Month to date heating degree days 348  
Since 1 July heating degree days 1044  
Cooling Degree Days 0 0  
Month to date cooling degree days 0  
Year to date cooling degree days 531  
Moisture  
Dew Point 29 °F    
Average Humidity 91    
Maximum Humidity 100    
Minimum Humidity 60    
Precipitation  
Precipitation 0.00 in 0.10 in 1.08 in (1973)
Month to date precipitation 1.37  
Year to date precipitation 28.15  
Snow  
Snow - 0.00 in 2.10 in (1997)
Month to date snowfall 0.5  
Since 1 July snowfall 0.9  
Since 1 September snowfall 0.9  
Snow Depth -    
Sea Level Pressure  
Sea Level Pressure 30.37 in    
Wind  
Wind Speed 0 mph ()    
Max Wind Speed 4 mph    
Max Gust Speed -    
Visibility 8.2 miles    
Events      
T = Trace of Precipitation, MM = Missing Value Source: Averaged Metar Reports

Daily Weather History Graph

Daily Weather History Graph

Search for Another Location

Airport:

Trip Planner

Search our weather history database for the weather conditions in past years. The results will help you decide how hot, cold, wet, or windy it might be!

Date:

Astronomy

Nov. 15, 2012 Rise Set
Actual Time 7:26 AM EST 5:08 PM EST
Civil Twilight 6:55 AM EST 5:39 PM EST
Nautical Twilight 6:21 AM EST 6:13 PM EST
Astronomical Twilight 5:47 AM EST 6:47 PM EST
Moon 9:22 AM EST (11/15) 6:57 PM EST (11/15)
Length of Visible Light 10h 43m
Length of Day
9h 42m
Waxing Crescent, 5% of the Moon is Illuminated
Nov 15
Waxing Crescent
Nov 20
First Quarter
Nov 28
Full
Dec 6
Last Quarter
Dec 13
New

Hourly Weather History & Observations

Time (EST) Temp. Windchill Dew Point Humidity Pressure Visibility Wind Dir Wind Speed Gust Speed Precip Events Conditions
12:36 AM 30.9 °F - 30.9 °F 100% 30.43 in 10.0 mi Calm Calm - N/A   Clear
12:53 AM 30.6 °F - 30.6 °F 100% 30.43 in 10.0 mi Calm Calm - N/A   Scattered Clouds
1:13 AM 28.9 °F - 28.9 °F 100% 30.43 in 10.0 mi Calm Calm - N/A   Scattered Clouds
1:33 AM 28.6 °F - 28.6 °F 100% 30.43 in 10.0 mi Calm Calm - N/A   Scattered Clouds
1:53 AM 28.0 °F - 28.0 °F 100% 30.43 in 7.0 mi Calm Calm - N/A   Clear
2:13 AM 27.1 °F 23.2 °F 27.1 °F 100% 30.41 in 7.0 mi ESE 3.5 mph - N/A   Clear
2:33 AM 26.6 °F - 26.6 °F 100% 30.41 in 7.0 mi Calm Calm - N/A   Clear
2:53 AM 26.4 °F - 26.4 °F 100% 30.41 in 7.0 mi Calm Calm - N/A   Clear
3:13 AM 26.4 °F - 26.4 °F 100% 30.41 in 7.0 mi Calm Calm - N/A   Clear
3:33 AM 26.4 °F - 26.4 °F 100% 30.40 in 7.0 mi Calm Calm - N/A   Clear
3:53 AM 25.5 °F - 25.5 °F 100% 30.40 in 5.0 mi Calm Calm - N/A   Clear
4:13 AM 25.7 °F - 25.7 °F 100% 30.39 in 7.0 mi Calm Calm - N/A   Clear
4:33 AM 25.5 °F - 25.5 °F 100% 30.39 in 5.0 mi Calm Calm - N/A   Clear
4:53 AM 24.8 °F - 24.8 °F 100% 30.39 in 5.0 mi Calm Calm - N/A   Scattered Clouds
5:14 AM 24.8 °F - 24.8 °F 100% 30.39 in 7.0 mi Calm Calm - N/A   Mostly Cloudy
5:33 AM 24.6 °F - 24.6 °F 100% 30.39 in 7.0 mi Calm Calm - N/A   Overcast
5:53 AM 24.4 °F - 24.4 °F 100% 30.39 in 7.0 mi Calm Calm - N/A   Overcast
6:14 AM 24.6 °F - 24.6 °F 100% 30.39 in 7.0 mi Calm Calm - N/A   Overcast
6:33 AM 24.1 °F - 24.1 °F 100% 30.39 in 7.0 mi Calm Calm - N/A   Scattered Clouds
6:53 AM 24.3 °F - 24.3 °F 100% 30.39 in 7.0 mi Calm Calm - N/A   Clear
7:13 AM 23.9 °F - 23.9 °F 100% 30.39 in 5.0 mi Calm Calm - N/A   Clear
7:33 AM 23.2 °F - 23.2 °F 100% 30.40 in 5.0 mi Calm Calm - N/A   Clear
7:53 AM 24.3 °F - 24.3 °F 100% 30.40 in 7.0 mi Calm Calm - N/A   Clear
8:13 AM 25.3 °F - 25.3 °F 100% 30.40 in 5.0 mi Calm Calm - N/A   Clear
8:33 AM 27.0 °F - 27.0 °F 100% 30.40 in 5.0 mi Calm Calm - N/A   Clear
8:53 AM 28.9 °F - 28.9 °F 100% 30.40 in 5.0 mi Calm Calm - N/A   Clear
9:13 AM 30.9 °F - 30.9 °F 100% 30.40 in 7.0 mi Calm Calm - N/A   Clear
9:33 AM 32.0 °F - 32.0 °F 100% 30.40 in 7.0 mi Calm Calm - N/A   Clear
9:53 AM 32.9 °F - 32.9 °F 100% 30.40 in 7.0 mi Calm Calm - N/A   Scattered Clouds
10:13 AM 33.3 °F - 33.3 °F 100% 30.40 in 7.0 mi Calm Calm - N/A   Mostly Cloudy
10:33 AM 34.3 °F - 34.2 °F 99% 30.40 in 10.0 mi Calm Calm - N/A   Overcast
10:53 AM 35.8 °F - 33.1 °F 90% 30.41 in 10.0 mi Calm Calm - N/A   Overcast
11:13 AM 36.7 °F - 34.3 °F 91% 30.40 in 10.0 mi Calm Calm - N/A   Overcast
11:33 AM 38.1 °F - 34.5 °F 87% 30.39 in 10.0 mi Calm Calm - N/A   Overcast
11:53 AM 39.7 °F - 31.8 °F 73% 30.37 in 10.0 mi Calm Calm - N/A   Mostly Cloudy
12:13 PM 40.6 °F 38.6 °F 31.1 °F 69% 30.37 in 10.0 mi SSW 3.5 mph - N/A   Mostly Cloudy
12:33 PM 40.1 °F - 30.6 °F 69% 30.37 in 10.0 mi Calm Calm - N/A   Scattered Clouds
12:53 PM 40.6 °F - 31.5 °F 70% 30.35 in 10.0 mi Calm Calm - N/A   Clear
1:13 PM 42.3 °F - 30.9 °F 64% 30.35 in 10.0 mi Calm Calm - N/A   Clear
1:33 PM 41.5 °F - 31.1 °F 66% 30.34 in 10.0 mi Calm Calm - N/A   Clear
1:53 PM 43.0 °F 41.3 °F 31.5 °F 64% 30.34 in 10.0 mi WNW 3.5 mph - N/A   Clear
2:13 PM 42.3 °F - 31.3 °F 65% 30.34 in 10.0 mi Calm Calm - N/A   Clear
2:33 PM 42.6 °F 40.9 °F 31.5 °F 65% 30.33 in 10.0 mi West 3.5 mph - N/A   Clear
2:53 PM 42.6 °F - 30.6 °F 62% 30.33 in 10.0 mi Calm Calm - N/A   Clear
3:13 PM 42.8 °F - 30.4 °F 62% 30.33 in 10.0 mi Calm Calm - N/A   Clear
3:33 PM 43.9 °F - 30.9 °F 60% 30.33 in 10.0 mi Calm Calm - N/A   Clear
3:53 PM 43.2 °F 41.5 °F 31.1 °F 62% 30.33 in 10.0 mi WNW 3.5 mph - N/A   Clear
4:13 PM 43.2 °F - 30.2 °F 60% 30.33 in 10.0 mi Calm Calm - N/A   Clear
4:33 PM 42.8 °F - 31.8 °F 65% 30.33 in 10.0 mi Calm Calm - N/A   Clear
4:53 PM 40.6 °F - 31.5 °F 70% 30.34 in 10.0 mi Calm Calm - N/A   Clear
5:13 PM 38.7 °F - 31.1 °F 74% 30.33 in 10.0 mi Calm Calm - N/A   Clear
5:33 PM 37.0 °F - 30.9 °F 79% 30.33 in 10.0 mi Calm Calm - N/A   Clear
5:53 PM 33.6 °F - 31.3 °F 91% 30.33 in 10.0 mi Calm Calm - N/A   Clear
6:13 PM 33.1 °F - 30.0 °F 89% 30.34 in 10.0 mi Calm Calm - N/A   Clear
6:33 PM 31.8 °F - 31.8 °F 100% 30.33 in 10.0 mi Calm Calm - N/A   Clear
6:53 PM 30.9 °F - 30.9 °F 100% 30.34 in 10.0 mi Calm Calm - N/A   Clear
7:13 PM 31.5 °F - 31.5 °F 100% 30.34 in 10.0 mi Calm Calm - N/A   Clear
7:33 PM 30.2 °F - 30.2 °F 100% 30.34 in 10.0 mi Calm Calm - N/A   Clear
7:53 PM 28.6 °F - 28.6 °F 100% 30.35 in 10.0 mi Calm Calm - N/A   Clear
8:13 PM 29.1 °F - 29.1 °F 100% 30.35 in 10.0 mi Calm Calm - N/A   Clear
8:33 PM 28.8 °F - 28.8 °F 100% 30.35 in 10.0 mi Calm Calm - N/A   Clear
8:53 PM 28.8 °F - 28.8 °F 100% 30.35 in 7.0 mi Calm Calm - N/A   Clear
9:13 PM 28.4 °F - 28.4 °F 100% 30.35 in 7.0 mi Calm Calm - N/A   Clear
9:33 PM 27.3 °F - 27.3 °F 100% 30.35 in 7.0 mi Calm Calm - N/A   Clear
9:53 PM 27.9 °F - 27.9 °F 100% 30.36 in 7.0 mi Calm Calm - N/A   Clear
10:13 PM 27.5 °F - 27.5 °F 100% 30.36 in 7.0 mi Calm Calm - N/A   Clear
10:33 PM 26.6 °F - 26.6 °F 100% 30.36 in 7.0 mi Calm Calm - N/A   Clear
10:53 PM 26.6 °F - 26.6 °F 100% 30.35 in 7.0 mi Calm Calm - N/A   Clear
11:13 PM 26.6 °F - 26.6 °F 100% 30.36 in 7.0 mi Calm Calm - N/A   Clear
11:34 PM 26.6 °F - 26.6 °F 100% 30.36 in 7.0 mi Calm Calm - N/A   Clear
11:53 PM 26.1 °F - 26.1 °F 100% 30.36 in 5.0 mi Calm Calm - N/A   Clear